This is the latest recevied weather packets stored in our database for station/object KL1SF-7. If no packets are shown the sender has not sent any weather packets the latest 10 day(s).
| Time | Temp. | Humidity | Pressure | Rain* | Wind** | Luminosity | Snow |
|---|---|---|---|---|---|---|---|
| 1777923213 | 14.44° C | 27% | 1014.5 hPa | 0 mm | - | - | - |
| 1777922615 | 14.44° C | 27% | 1014.6 hPa | 0 mm | - | - | - |
| 1777922004 | 14.44° C | 28% | 1014.6 hPa | 0 mm | - | - | - |
| 1777921422 | 13.89° C | 31% | 1014.8 hPa | 0 mm | - | - | - |
| 1777920821 | 13.89° C | 29% | 1014.9 hPa | 0 mm | - | - | - |
| 1777920211 | 13.33° C | 30% | 1014.9 hPa | 0 mm | - | - | - |
| 1777919624 | 13.33° C | 29% | 1015.1 hPa | 0 mm | - | - | - |
| 1777919004 | 13.33° C | 31% | 1014.9 hPa | 0 mm | - | - | - |
| 1777918414 | 12.78° C | 32% | 1014.9 hPa | 0 mm | - | - | - |
| 1777917825 | 12.78° C | 33% | 1015.2 hPa | 0 mm | - | - | - |
| 1777917210 | 12.78° C | 35% | 1014.9 hPa | 0 mm | - | - | - |
| 1777916620 | 12.22° C | 38% | 1014.9 hPa | 0 mm | - | - | - |
| 1777916012 | 12.78° C | 37% | 1014.9 hPa | 0 mm | - | - | - |
| 1777915413 | 12.78° C | 38% | 1014.8 hPa | 0 mm | - | - | - |
| 1777914803 | 12.78° C | 37% | 1014.8 hPa | 0 mm | - | - | - |
| 1777914216 | 12.78° C | 38% | 1015.2 hPa | 0 mm | - | - | - |
| 1777913620 | 12.22° C | 41% | 1015 hPa | 0 mm | - | - | - |
| 1777913010 | 11.67° C | 41% | 1015 hPa | 0 mm | - | - | - |
| 1777912422 | 11.67° C | 43% | 1014.8 hPa | 0 mm | - | - | - |
| 1777911802 | 11.11° C | 43% | 1015 hPa | 0 mm | - | - | - |
| 1777911211 | 11.11° C | 43% | 1015 hPa | 0 mm | - | - | - |
| 1777910623 | 11.11° C | 43% | 1014.9 hPa | 0 mm | - | - | - |
| 1777910007 | 11.11° C | 44% | 1014.7 hPa | 0 mm | - | - | - |
| 1777909417 | 10.56° C | 44% | 1014.7 hPa | 0 mm | - | - | - |
| 1777908830 | 10.56° C | 45% | 1014.5 hPa | 0 mm | - | - | - |
* Rain since midnight (hover to see other rain measurements)
** Current wind speed in m/s (hover to see current wind gust speed)